Location: Newark
(42.8481°N, 0.4872°E)
Time: 17:27:31
(UTC+00:00)

Vanguard 3 - Pass Details

Date: 31 October 2020
Orbit: 508 x 3262 km, 33.3° (Epoch: 28 November)

Event Time Altitude Azimuth Distance (km) Brightness Sun altitude
Rises 03:11:18 0° 212° (SSW) 5,450 - -36.9°
Reaches altitude 10° 03:14:52 10° 203° (SSW) 4,802 - -36.3°
Exits shadow 03:18:07 19° 193° (SSW) 4,340 10.5 -35.7°
Maximum altitude 03:27:44 36° 143° (SE) 3,988 10.7 -34.0°
Drops below altitude 10° 03:44:21 10° 87° (E) 6,204 12.5 -31.0°
Sets 03:49:43 0° 80° (E) 7,175 13.2 -30.1°
